Weather History for Macomb, IL

Change the Weather History Date:

Wednesday, December 12, 2012

  Actual Average (KBRL) Record (KBRL)
Temperature  
Mean Temperature 35 °F 30 °F  
Max Temperature 47 °F 38 °F 66 °F (1991)
Min Temperature 23 °F 22 °F -10 °F (1962)
Degree Days  
Heating Degree Days 30 35  
Month to date heating degree days 398  
Since 1 July heating degree days 1471  
Cooling Degree Days 0 0  
Month to date cooling degree days 0  
Year to date cooling degree days 1207  
Moisture  
Dew Point 24 °F    
Average Humidity 67    
Maximum Humidity 86    
Minimum Humidity 38    
Precipitation  
Precipitation 0.00 in 0.07 in 0.46 in (1991)
Month to date precipitation 0.91  
Year to date precipitation 37.30  
Sea Level Pressure  
Sea Level Pressure 30.24 in    
Wind  
Wind Speed 9 mph (South)    
Max Wind Speed 16 mph    
Max Gust Speed 18 mph    
Visibility 10 miles    
Events      
T = Trace of Precipitation, MM = Missing Value Source: NWS Daily Summary

Daily Weather History Graph

Daily Weather History Graph

Search for Another Location

Airport:

Trip Planner

Search our weather history database for the weather conditions in past years. The results will help you decide how hot, cold, wet, or windy it might be!

Date:

Astronomy

Dec. 12, 2012 Rise Set
Actual Time 7:17 AM CST 4:36 PM CST
Civil Twilight 6:46 AM CST 5:06 PM CST
Nautical Twilight 6:12 AM CST 5:41 PM CST
Astronomical Twilight 5:38 AM CST 6:14 PM CST
Moon 6:21 AM CST (12/12) 4:13 PM CST (12/12)
Length of Visible Light 10h 20m
Length of Day
9h 19m
Waning Crescent, 1% of the Moon is Illuminated
Dec 12
Waning Crescent
Dec 13
New
Dec 19
First Quarter
Dec 28
Full
Jan 4
Last Quarter

Hourly Weather History & Observations

Time (CST) Temp. Windchill Dew Point Humidity Pressure Visibility Wind Dir Wind Speed Gust Speed Precip Events Conditions
12:15 AM 27.3 °F 19.1 °F 21.6 °F 79% 30.18 in 10.0 mi SSW 8.1 mph - N/A   Clear
12:35 AM 28.0 °F 20.0 °F 21.7 °F 77% 30.18 in 10.0 mi SSW 8.1 mph - N/A   Clear
12:55 AM 28.4 °F 20.4 °F 21.9 °F 77% 30.19 in 10.0 mi SSW 8.1 mph - N/A   Clear
1:15 AM 28.0 °F 20.8 °F 21.7 °F 77% 30.19 in 10.0 mi SSW 6.9 mph - N/A   Clear
1:35 AM 27.3 °F 19.9 °F 21.6 °F 79% 30.19 in 10.0 mi SSW 6.9 mph - N/A   Clear
1:55 AM 27.3 °F 19.9 °F 21.7 °F 80% 30.20 in 10.0 mi SSW 6.9 mph - N/A   Clear
2:15 AM 27.5 °F 20.2 °F 21.6 °F 78% 30.20 in 10.0 mi SSW 6.9 mph - N/A   Clear
2:35 AM 27.5 °F 20.2 °F 21.6 °F 78% 30.21 in 10.0 mi SSW 6.9 mph - N/A   Clear
2:55 AM 26.6 °F 19.1 °F 21.2 °F 80% 30.20 in 10.0 mi SSW 6.9 mph - N/A   Clear
3:15 AM 26.4 °F 18.9 °F 21.2 °F 81% 30.20 in 10.0 mi SSW 6.9 mph - N/A   Clear
3:35 AM 27.1 °F 19.7 °F 21.2 °F 78% 30.21 in 10.0 mi SSW 6.9 mph - N/A   Clear
3:55 AM 27.5 °F 19.3 °F 21.2 °F 77% 30.21 in 10.0 mi SSW 8.1 mph - N/A   Clear
4:15 AM 26.6 °F 19.1 °F 21.2 °F 80% 30.21 in 10.0 mi SSW 6.9 mph - N/A   Clear
4:35 AM 26.6 °F 20.0 °F 21.0 °F 79% 30.22 in 10.0 mi SSW 5.8 mph - N/A   Clear
4:55 AM 25.7 °F 19.0 °F 20.5 °F 81% 30.22 in 10.0 mi SSW 5.8 mph - N/A   Clear
5:15 AM 24.4 °F 17.5 °F 19.9 °F 83% 30.22 in 10.0 mi SSW 5.8 mph - N/A   Clear
5:35 AM 24.6 °F 16.7 °F 20.3 °F 84% 30.22 in 10.0 mi South 6.9 mph - N/A   Clear
5:55 AM 23.9 °F 15.0 °F 20.1 °F 85% 30.23 in 10.0 mi South 8.1 mph - N/A   Clear
6:15 AM 25.5 °F 16.9 °F 21.0 °F 83% 30.24 in 10.0 mi South 8.1 mph - N/A   Clear
6:35 AM 25.5 °F 16.9 °F 20.8 °F 82% 30.24 in 10.0 mi South 8.1 mph - N/A   Clear
6:55 AM 24.8 °F 15.3 °F 21.2 °F 86% 30.25 in 10.0 mi South 9.2 mph - N/A   Clear
7:15 AM 25.9 °F 17.4 °F 21.0 °F 82% 30.25 in 10.0 mi South 8.1 mph - N/A   Clear
7:35 AM 25.9 °F 16.0 °F 21.2 °F 82% 30.25 in 10.0 mi South 10.4 mph - N/A   Clear
7:55 AM 26.4 °F 18.0 °F 21.7 °F 82% 30.26 in 10.0 mi South 8.1 mph - N/A   Clear
8:15 AM 28.2 °F 19.5 °F 22.6 °F 80% 30.27 in 10.0 mi South 9.2 mph - N/A   Clear
8:35 AM 30.2 °F 21.3 °F 23.0 °F 75% 30.27 in 10.0 mi South 10.4 mph - N/A   Clear
8:55 AM 31.5 °F 22.9 °F 23.9 °F 74% 30.27 in 10.0 mi South 10.4 mph - N/A   Clear
9:15 AM 32.4 °F 24.0 °F 24.4 °F 73% 30.28 in 10.0 mi South 10.4 mph - N/A   Clear
9:35 AM 34.5 °F 26.7 °F 25.0 °F 68% 30.28 in 10.0 mi South 10.4 mph - N/A   Clear
9:55 AM 36.5 °F 28.7 °F 25.9 °F 65% 30.29 in 10.0 mi South 11.5 mph - N/A   Clear
10:15 AM 38.1 °F 31.7 °F 26.2 °F 62% 30.29 in 10.0 mi South 9.2 mph - N/A   Clear
10:35 AM 41.0 °F 34.3 °F 26.6 °F 57% 30.29 in 10.0 mi South 11.5 mph - N/A   Clear
10:55 AM 41.5 °F 35.4 °F 25.5 °F 53% 30.28 in 10.0 mi South 10.4 mph - N/A   Clear
11:15 AM 42.8 °F 35.8 °F 25.5 °F 51% 30.28 in 10.0 mi South 13.8 mph - N/A   Clear
11:35 AM 43.7 °F 36.6 °F 25.3 °F 48% 30.27 in 10.0 mi South 15.0 mph - N/A   Clear
11:55 AM 44.6 °F 37.8 °F 24.4 °F 45% 30.27 in 10.0 mi South 15.0 mph - N/A   Clear
12:15 PM 45.0 °F 37.9 °F 23.4 °F 43% 30.26 in 10.0 mi South 16.1 mph - N/A   Clear
12:35 PM 46.4 °F 40.4 °F 24.8 °F 43% 30.26 in 10.0 mi South 13.8 mph 18.4 mph N/A   Clear
12:55 PM 46.2 °F 40.8 °F 23.9 °F 42% 30.25 in 10.0 mi South 11.5 mph - N/A   Clear
1:15 PM 46.8 °F - 24.1 °F 41% 30.25 in 10.0 mi South 12.7 mph 18.4 mph N/A   Clear
1:35 PM 47.1 °F - 24.6 °F 41% 30.24 in 10.0 mi South 15.0 mph - N/A   Clear
1:55 PM 47.5 °F - 24.1 °F 40% 30.23 in 10.0 mi South 15.0 mph - N/A   Clear
2:15 PM 47.7 °F - 24.1 °F 40% 30.22 in 10.0 mi South 13.8 mph - N/A   Clear
2:35 PM 47.7 °F - 22.8 °F 38% 30.22 in 10.0 mi South 13.8 mph - N/A   Clear
2:55 PM 47.7 °F - 23.4 °F 38% 30.22 in 10.0 mi South 15.0 mph - N/A   Clear
3:15 PM 47.3 °F - 24.1 °F 40% 30.22 in 10.0 mi South 12.7 mph - N/A   Clear
3:35 PM 46.6 °F - 23.9 °F 41% 30.22 in 10.0 mi South 11.5 mph - N/A   Clear
3:55 PM 45.3 °F 40.1 °F 24.8 °F 45% 30.22 in 10.0 mi South 10.4 mph - N/A   Clear
4:15 PM 43.5 °F 37.9 °F 25.3 °F 49% 30.22 in 10.0 mi SSE 10.4 mph - N/A   Clear
4:35 PM 41.0 °F 34.7 °F 24.8 °F 53% 30.22 in 10.0 mi South 10.4 mph - N/A   Clear
4:55 PM 38.7 °F 31.8 °F 24.8 °F 58% 30.22 in 10.0 mi South 10.4 mph - N/A   Clear
5:15 PM 37.9 °F 31.5 °F 24.6 °F 59% 30.22 in 10.0 mi South 9.2 mph - N/A   Clear
5:35 PM 37.6 °F 31.0 °F 24.4 °F 59% 30.22 in 10.0 mi SSE 9.2 mph - N/A   Clear
5:55 PM 36.9 °F 29.6 °F 24.4 °F 61% 30.22 in 10.0 mi SSE 10.4 mph - N/A   Clear
6:15 PM 36.5 °F 28.7 °F 24.8 °F 63% 30.22 in 10.0 mi South 11.5 mph - N/A   Clear
6:35 PM 35.6 °F 27.5 °F 24.8 °F 65% 30.23 in 10.0 mi SSE 11.5 mph - N/A   Clear
6:55 PM 34.9 °F 27.1 °F 25.0 °F 67% 30.23 in 10.0 mi SSE 10.4 mph - N/A   Clear
7:15 PM 34.2 °F 26.8 °F 25.0 °F 69% 30.23 in 10.0 mi SSE 9.2 mph - N/A   Clear
7:35 PM 33.8 °F 25.8 °F 24.8 °F 70% 30.23 in 10.0 mi South 10.4 mph - N/A   Clear
7:55 PM 34.2 °F 26.2 °F 25.3 °F 70% 30.23 in 10.0 mi SSE 10.4 mph - N/A   Clear
8:15 PM 34.0 °F 26.0 °F 25.5 °F 71% 30.24 in 10.0 mi South 10.4 mph - N/A   Clear
8:35 PM 33.8 °F 25.8 °F 26.6 °F 75% 30.24 in 10.0 mi South 10.4 mph - N/A   Clear
8:55 PM 34.2 °F 26.8 °F 26.1 °F 72% 30.24 in 10.0 mi South 9.2 mph - N/A   Clear
9:15 PM 33.8 °F 25.8 °F 26.1 °F 73% 30.24 in 10.0 mi South 10.4 mph - N/A   Clear
9:35 PM 34.3 °F 26.5 °F 26.2 °F 72% 30.24 in 10.0 mi SSE 10.4 mph - N/A   Clear
9:55 PM 33.8 °F 26.4 °F 26.1 °F 73% 30.25 in 10.0 mi South 9.2 mph - N/A   Clear
10:15 PM 33.4 °F 25.4 °F 25.9 °F 74% 30.26 in 10.0 mi South 10.4 mph - N/A   Clear
10:35 PM 33.8 °F 25.3 °F 26.1 °F 73% 30.26 in 10.0 mi South 11.5 mph - N/A   Clear
10:55 PM 33.4 °F 24.8 °F 26.1 °F 74% 30.26 in 10.0 mi South 11.5 mph - N/A   Clear
11:15 PM 33.3 °F 25.1 °F 26.1 °F 75% 30.27 in 10.0 mi South 10.4 mph - N/A   Clear
11:35 PM 33.1 °F 24.9 °F 25.7 °F 74% 30.27 in 10.0 mi South 10.4 mph - N/A   Clear
11:55 PM 32.2 °F 23.8 °F 25.7 °F 77% 30.26 in 10.0 mi South 10.4 mph - N/A   Clear